Home > Weather > Toamasina > Past weeks

Flag for Madagascar Past Weather in Toamasina, Madagascar — Yesterday and Last 2 Weeks

Now
66 °F

Passing clouds.


Feels Like: 66 °F
Forecast: 63 / 72 °F
Wind: No wind

Location: Tamatave

Current Time: Aug 26, 2016 at 4:53:01 AM

Latest Report: Aug 26, 2016 at 4:00 AM


Visibility: N/A

Pressure: 30.12 "Hg

Humidity: 94%

Dew Point: 64 °F

Location of ToamasinaLocation

Past Weather in Toamasina — Graph

°F

Toamasina Temperature Yesterday

Maximum temperature yesterday: 79 °F (at 12:00 PM)
Minimum temperature yesterday: 63 °F (at 12:00 AM)
Average temperature yesterday: 71 °F

High & Low Weather Summary for the Past Weeks

 TemperatureHumidityPressure
High81 °F (Aug 12, 12:00 PM)100% (Aug 11, 4:00 AM)30.27 "Hg (Aug 11, 4:00 AM)
Low59 °F (Aug 21, 6:00 AM)54% (Aug 19, 1:00 PM)30.04 "Hg (Aug 11, 2:00 PM)
Average71 °F84%30.15 "Hg
* Reported Aug 11 4:00 AM — Aug 26 4:00 AM, Toamasina, Weather by CustomWeather, © 2016

Note: Actual official high and low records may vary slightly from our data, if they occured in-between our weather recording intervals... More about our weather records

Advertising

Toamasina Weather History for the Previous 24 Hours

Scroll right to see more
 ConditionsComfort  
Time TempWeatherWind HumidityBarometerVisibility
4:00 AM
Fri, Aug 26
66 °FPassing clouds.No wind94%30.12 "HgN/A
3:00 AM66 °FPassing clouds.No wind94%30.12 "HgN/A
2:00 AM64 °FPassing clouds.No wind94%30.15 "HgN/A
1:00 AM64 °FPassing clouds.No wind94%30.15 "HgN/A
12:00 AM64 °FPassing clouds.No wind94%30.18 "HgN/A
10:00 PM
Thu, Aug 25
66 °FPassing clouds.No wind94%30.15 "HgN/A
9:00 PM66 °FPassing clouds.No wind88%30.18 "HgN/A
8:00 PM68 °FPassing clouds.No wind94%30.15 "HgN/A
7:00 PM70 °FPassing clouds.No wind88%30.15 "HgN/A
6:00 PM73 °FPassing clouds.5 mph78%30.12 "HgN/A
5:00 PM77 °FScattered clouds.9 mph74%30.12 "HgN/A
4:00 PM77 °FScattered clouds.12 mph69%30.12 "HgN/A
3:00 PM79 °FScattered clouds.12 mph70%30.09 "HgN/A
2:00 PM79 °FScattered clouds.12 mph65%30.09 "HgN/A
1:00 PM79 °FScattered clouds.12 mph65%30.12 "HgN/A
12:00 PM79 °FPartly sunny.12 mph65%30.15 "HgN/A
11:00 AM77 °FPartly sunny.12 mph69%30.15 "HgN/A
10:00 AM77 °FPartly sunny.14 mph69%30.18 "HgN/A
9:00 AM73 °FScattered showers. Scattered clouds.12 mph74%30.18 "HgN/A
8:00 AM72 °FBroken clouds.9 mph78%30.15 "HgN/A
7:00 AM68 °FScattered clouds.9 mph88%30.15 "HgN/A
6:00 AM64 °FScattered showers. Scattered clouds.5 mph88%30.12 "HgN/A
5:00 AM64 °FPassing clouds.9 mph94%30.12 "HgN/A
4:00 AM64 °FPassing clouds.No wind94%30.12 "HgN/A
Weather by CustomWeather, © 2016

See weather overviewHow to use our weather pages